This demonstration page uses our WeatherBlox Daily Observations layout. Learn more.

Left ArrowRight Arrow

Hourly Observations for September 6, 2022

Temp ( °F °C ) Dew Point ( °F °C ) Humidity (%) Winds ( mph kmh ) Pressure ( in mb ) Visibility ( mi km ) Precip ( " mm )
12:53 am 00:53 Mostly Cloudy 77 25 70 21.1 79 79 ENE 3 6 29.96 1015 10 16 0.00 0.00
1:53 am 01:53 Mostly Clear 77 25 69 20.6 77 77 Calm 29.95 1014 10 16 0.00 0.00
2:53 am 02:53 Partly Cloudy 76 24.4 69 20.6 79 79 ESE 3 6 29.93 1014 10 16 0.00 0.00
3:53 am 03:53 Partly Cloudy 74 23.3 68 20 82 82 ESE 5 7 29.93 1014 10 16 0.00 0.00
4:53 am 04:53 Mostly Clear 74 23.3 67 19.4 79 79 ESE 6 9 29.94 1014 10 16 0.00 0.00
5:53 am 05:53 Clear 74 23.3 67 19.4 79 79 ESE 6 9 29.95 1014 10 16 0.00 0.00
6:53 am 06:53 Sunny 75 23.9 65 18.3 71 71 ESE 6 9 29.97 1015 10 16 0.00 0.00
7:53 am 07:53 Sunny 79 26.1 69 20.6 72 72 SE 8 13 29.98 1015 10 16 0.00 0.00
8:53 am 08:53 Sunny 80 26.7 70 21.1 71 71 S 7 11 29.99 1016 10 16 0.00 0.00
9:53 am 09:53 Mostly Sunny 81 27.2 70 21.1 69 69 SSW 10 17 30.00 1016 10 16 0.00 0.00
10:53 am 10:53 Partly Cloudy 82 27.8 71 21.7 69 69 SSW 9 15 29.99 1016 10 16 0.00 0.00
11:53 am 11:53 Partly Cloudy 82 27.8 73 22.8 74 74 SW 12 19 29.98 1015 10 16 0.00 0.00
12:53 pm 12:53 Sunny 85 29.4 71 21.7 63 63 WSW 12 19 29.96 1015 10 16 0.00 0.00
1:53 pm 13:53 Mostly Cloudy 81 27.2 72 22.2 74 74 WSW 9 15 29.95 1014 10 16 0.00 0.00
2:53 pm 14:53 Mostly Cloudy 82 27.8 72 22.2 72 72 SW 8 13 29.93 1014 10 16 0.00 0.00
3:53 pm 15:53 Mostly Cloudy 82 27.8 73 22.8 74 74 SW 8 13 29.92 1013 10 16 0.00 0.00
4:53 pm 16:53 Cloudy 80 26.7 72 22.2 76 76 WSW 7 11 29.92 1013 10 16 0.00 0.00
5:53 pm 17:53 Mostly Cloudy 80 26.7 72 22.2 76 76 WSW 3 6 29.92 1013 10 16 0.00 0.00
6:53 pm 18:53 Mostly Cloudy 80 26.7 72 22.2 76 76 S 7 11 29.94 1014 10 16 0.00 0.00
7:53 pm 19:53 Mostly Cloudy 80 26.7 72 22.2 76 76 S 8 13 29.96 1014 10 16 0.00 0.00
9:16 pm 21:16 Mostly Cloudy 79 26.1 72 22.2 79 79 SSW 9 15 29.98 1015 10 16 0.00 0.00
9:32 pm 21:32 Partly Cloudy 79 26.1 72 22.2 79 79 SSW 8 13 29.98 1015 10 16 0.00 0.00
9:53 pm 21:53 Clear 79 26.1 71 21.7 77 77 SSW 8 13 29.98 1015 10 16 0.00 0.00
10:33 pm 22:33 Mostly Cloudy 79 26.1 72 22.2 79 79 SSW 8 13 29.98 1015 10 16 0.00 0.00
10:53 pm 22:53 Mostly Cloudy 78 25.6 72 22.2 82 82 SSW 7 11 29.97 1015 10 16 0.00 0.00
11:01 pm 23:01 Mostly Cloudy 78 25.6 72 22.2 82 82 SSW 8 13 29.98 1015 10 16 0.00 0.00
11:53 pm 23:53 Mostly Clear 78 25.6 72 22.2 82 82 S 5 7 29.97 1015 10 16 0.00 0.00

Powered by AerisWeather